This is the latest recevied weather packets stored in our database for station/object KB3VSP. If no packets are shown the sender has not sent any weather packets the latest 10 day(s).
| Time | Temp. | Humidity | Pressure | Rain* | Wind** | Luminosity | Snow |
|---|---|---|---|---|---|---|---|
| 1777760014 | 5° C | 78% | 1016.3 hPa | 0 mm | - | 62 W/m² | - |
| 1777759712 | 5° C | 79% | 1016.4 hPa | 0 mm | - | 54 W/m² | - |
| 1777759407 | 5° C | 77% | 1016.3 hPa | 0 mm | - | 42 W/m² | - |
| 1777759104 | 5° C | 77% | 1016.4 hPa | 0 mm | - | 47 W/m² | - |
| 1777758802 | 5° C | 78% | 1016.5 hPa | 0 mm | - | 52 W/m² | - |
| 1777758498 | 5° C | 78% | 1016.2 hPa | 0 mm | - | 53 W/m² | - |
| 1777758194 | 5° C | 77% | 1016.1 hPa | 0 mm | - | 48 W/m² | - |
| 1777757892 | 5° C | 79% | 1016.3 hPa | 0 mm | - | 30 W/m² | - |
| 1777757588 | 5° C | 78% | 1016.3 hPa | 0 mm | - | 39 W/m² | - |
| 1777757288 | 5° C | 79% | 1016.2 hPa | 0 mm | - | 55 W/m² | - |
| 1777756980 | 5° C | 79% | 1016.2 hPa | 0 mm | - | 46 W/m² | - |
| 1777756676 | 5.56° C | 77% | 1016.3 hPa | 0 mm | - | 55 W/m² | - |
| 1777756373 | 5.56° C | 78% | 1016.2 hPa | 0 mm | - | 58 W/m² | - |
| 1777756070 | 5.56° C | 76% | 1016.2 hPa | 0 mm | - | 81 W/m² | - |
| 1777755767 | 5.56° C | 77% | 1016 hPa | 0 mm | - | 101 W/m² | - |
| 1777755465 | 5.56° C | 74% | 1016.3 hPa | 0 mm | - | 116 W/m² | - |
| 1777755160 | 5.56° C | 73% | 1016 hPa | 0 mm | - | 107 W/m² | - |
| 1777754858 | 6.11° C | 74% | 1016.1 hPa | 0 mm | - | 112 W/m² | - |
| 1777754555 | 6.11° C | 75% | 1015.9 hPa | 0 mm | - | 95 W/m² | - |
| 1777754253 | 6.11° C | 75% | 1015.9 hPa | 0 mm | - | 152 W/m² | - |
| 1777753950 | 6.11° C | 77% | 1016.1 hPa | 0 mm | - | 168 W/m² | - |
| 1777753644 | 6.67° C | 75% | 1016.1 hPa | 0 mm | - | 169 W/m² | - |
| 1777753343 | 6.11° C | 77% | 1016 hPa | 0 mm | - | 163 W/m² | - |
| 1777753040 | 5.56° C | 79% | 1016.4 hPa | 0 mm | - | 198 W/m² | - |
| 1777752736 | 5.56° C | 81% | 1016.2 hPa | 0 mm | - | 188 W/m² | - |
* Rain latest hour (hover to see other rain measurements)
** Current wind speed in m/s (hover to see current wind gust speed)